| time (UTC) | temp F | wind direction | speed MPH | gust MPH | rain 1hr in | rain 24hr in | rain mn in | humidity % | barometer mb |
| 20260906225802 | 59 | 157 | 0.0 | 0.0 | 0.00 | 2.27 | 0.00 | 82 | 1016.4 |
| 20260906215802 | 59 | 157 | 0.0 | 0.0 | 0.00 | 2.27 | 0.00 | 81 | 1016.3 |
| 20260906205801 | 61 | 135 | 0.0 | 0.0 | 0.00 | 2.27 | 0.00 | 78 | 1016.9 |
| 20260906195802 | 62 | 157 | 0.0 | 0.0 | 0.00 | 2.37 | 0.00 | 80 | 1017.8 |
| 20260906185804 | 63 | 135 | 0.0 | 0.0 | 0.00 | 2.43 | 0.00 | 79 | 1018.5 |
| 20260906175802 | 64 | 157 | 0.0 | 0.0 | 0.00 | 2.70 | 0.00 | 75 | 1018.4 |
| 20260906165801 | 66 | 180 | 0.0 | 0.0 | 0.00 | 2.77 | 0.00 | 71 | 1019.3 |
| 20260906155801 | 68 | 157 | 0.0 | 0.0 | 0.00 | 2.77 | 0.00 | 66 | 1019.7 |
| 20260906145802 | 69 | 67 | 0.0 | 0.0 | 0.00 | 2.77 | 0.00 | 59 | 1020.1 |
| 20260906135801 | 70 | 157 | 0.0 | 0.0 | 0.00 | 2.77 | 0.00 | 59 | 1020.4 |
| 20260906125801 | 66 | 247 | 0.0 | 0.0 | 0.00 | 2.77 | 0.00 | 63 | 1020.8 |
| 20260906115801 | 68 | 292 | 0.0 | 0.0 | 0.00 | 2.77 | 0.00 | 65 | 1021.4 |
| 20260906105801 | 66 | 292 | 0.0 | 0.0 | 0.00 | 2.77 | 0.00 | 67 | 1021.5 |
| 20260906095802 | 64 | 270 | 0.0 | 0.0 | 0.00 | 2.77 | 0.00 | 70 | 1022.1 |
| 20260906085801 | 63 | 270 | 0.0 | 0.0 | 0.00 | 2.77 | 0.00 | 72 | 1022.0 |
| 20260906075801 | 61 | 247 | 0.0 | 0.0 | 0.00 | 2.77 | 0.00 | 74 | 1021.5 |
| 20260906065801 | 58 | 292 | 0.0 | 0.0 | 0.00 | 2.77 | 0.00 | 76 | 1020.9 |
| 20260906055802 | 60 | 315 | 0.0 | 0.0 | 0.00 | 2.77 | 0.00 | 69 | 1020.9 |
| 20260906045802 | 60 | 292 | 0.0 | 0.0 | 0.00 | 2.77 | 0.00 | 67 | 1020.8 |
| 20260906035802 | 60 | 315 | 0.0 | 0.0 | 0.00 | 2.78 | 0.00 | 67 | 1020.2 |
| 20260906025802 | 60 | 315 | 0.0 | 0.0 | 0.00 | 2.78 | 0.00 | 67 | 1020.4 |
| 20260906015802 | 60 | 292 | 0.0 | 0.0 | 0.00 | 2.79 | 0.00 | 65 | 1020.3 |
| 20260906005801 | 60 | 315 | 0.0 | 0.0 | 0.00 | 2.79 | 0.00 | 65 | 1019.8 |
| 20260905235802 | 61 | 315 | 0.0 | 0.0 | 0.00 | 2.79 | 0.15 | 66 | 1019.5 |